| time (UTC) | temp F | wind direction | speed knots | gust knots | rain 1hr in | rain 24hr in | rain mn in | humidity % | barometer mb |
| 20260504151129 | 58 | 248 | 11.3 | 16.5 | 0.00 | 0.00 | 0.00 | 45 | 988.6 |
| 20260504150121 | 59 | 248 | 6.1 | 11.3 | 0.00 | 0.00 | 0.00 | 45 | 988.6 |
| 20260504141119 | 57 | 248 | 7.8 | 11.3 | 0.00 | 0.00 | 0.00 | 48 | 988.5 |
| 20260504140129 | 57 | 248 | 5.2 | 8.7 | 0.00 | 0.00 | 0.00 | 49 | 988.3 |
| 20260504130119 | 53 | 225 | 8.7 | 12.2 | 0.00 | 0.00 | 0.00 | 55 | 988.8 |
| 20260504120120 | 48 | 225 | 2.6 | 7.0 | 0.00 | 0.00 | 0.00 | 62 | 989.3 |
| 20260504110119 | 46 | 225 | 3.5 | 7.8 | 0.00 | 0.00 | 0.00 | 66 | 989.4 |
| 20260504100119 | 47 | 225 | 3.5 | 5.2 | 0.00 | 0.00 | 0.00 | 67 | 989.2 |
| 20260504090119 | 46 | 225 | 3.5 | 5.2 | 0.00 | 0.00 | 0.00 | 74 | 989.3 |
| 20260504081528 | 45 | 248 | 2.6 | 7.0 | 0.00 | 0.00 | 0.00 | 74 | 989.3 |
| 20260504080522 | 45 | 270 | 5.2 | 7.0 | 0.00 | 0.00 | 0.00 | 74 | 989.4 |
| 20260504050519 | 44 | 248 | 1.7 | 3.5 | 0.00 | 0.00 | 0.00 | 49 | 989.7 |
| 20260504045518 | 45 | 248 | 1.7 | 4.3 | 0.00 | 0.00 | 0.00 | 46 | 989.6 |
| 20260504044519 | 45 | 270 | 0.9 | 1.7 | 0.00 | 0.00 | 0.00 | 45 | 989.6 |
| 20260504043518 | 44 | 0.0 | 1.7 | 0.00 | 0.00 | 0.00 | 45 | 989.6 | |
| 20260504042519 | 44 | 0.0 | 0.0 | 0.00 | 0.00 | 0.00 | 45 | 989.6 | |
| 20260504041519 | 44 | 270 | 0.9 | 2.6 | 0.00 | 0.00 | 0.00 | 47 | 989.7 |
| 20260504040518 | 44 | 270 | 2.6 | 3.5 | 0.00 | 0.00 | 0.00 | 47 | 989.6 |
| 20260504035518 | 43 | 270 | 0.9 | 1.7 | 0.00 | 0.00 | 0.00 | 49 | 989.4 |
| 20260504034519 | 43 | 270 | 0.9 | 3.5 | 0.00 | 0.00 | 0.00 | 49 | 989.4 |
| 20260504033519 | 43 | 270 | 0.9 | 1.7 | 0.00 | 0.00 | 0.00 | 49 | 989.4 |
| 20260504032518 | 43 | 293 | 2.6 | 3.5 | 0.00 | 0.00 | 0.00 | 50 | 989.4 |
| 20260504031523 | 43 | 293 | 2.6 | 3.5 | 0.00 | 0.00 | 0.00 | 51 | 989.4 |
| 20260504030518 | 43 | 293 | 0.9 | 1.7 | 0.00 | 0.00 | 0.00 | 52 | 989.4 |
| 20260504025520 | 43 | 293 | 0.9 | 1.7 | 0.00 | 0.00 | 0.00 | 52 | 989.5 |
| 20260504024519 | 43 | 315 | 2.6 | 3.5 | 0.00 | 0.00 | 0.00 | 52 | 989.5 |
| 20260504023518 | 43 | 315 | 1.7 | 2.6 | 0.00 | 0.00 | 0.00 | 51 | 989.5 |
| 20260504022518 | 43 | 315 | 1.7 | 3.5 | 0.00 | 0.00 | 0.00 | 51 | 989.5 |
| 20260504021518 | 43 | 0.0 | 0.9 | 0.00 | 0.00 | 0.00 | 52 | 989.5 | |
| 20260504020518 | 44 | 315 | 1.7 | 2.6 | 0.00 | 0.00 | 0.00 | 50 | 989.5 |
| 20260504015519 | 44 | 315 | 1.7 | 2.6 | 0.00 | 0.00 | 0.00 | 48 | 989.3 |
| 20260504014520 | 44 | 0.0 | 0.9 | 0.00 | 0.00 | 0.00 | 48 | 989.2 | |
| 20260504013521 | 44 | 315 | 0.9 | 2.6 | 0.00 | 0.00 | 0.00 | 49 | 989.2 |
| 20260504012519 | 44 | 0.0 | 0.0 | 0.00 | 0.00 | 0.00 | 48 | 989.0 | |
| 20260504011519 | 44 | 0.0 | 0.9 | 0.00 | 0.00 | 0.00 | 49 | 988.9 | |
| 20260504010518 | 44 | 0.0 | 0.9 | 0.00 | 0.00 | 0.00 | 49 | 988.7 | |
| 20260504005519 | 44 | 0.0 | 0.0 | 0.00 | 0.00 | 0.00 | 49 | 988.6 | |
| 20260504004527 | 44 | 0.0 | 0.0 | 0.00 | 0.00 | 0.00 | 49 | 988.5 | |
| 20260504003519 | 44 | 0.0 | 0.0 | 0.00 | 0.00 | 0.00 | 48 | 988.5 | |
| 20260504002518 | 45 | 0.0 | 0.0 | 0.00 | 0.00 | 0.00 | 48 | 988.4 | |
| 20260504001518 | 45 | 0.0 | 0.9 | 0.00 | 0.00 | 0.00 | 48 | 988.3 | |
| 20260504000522 | 46 | 0.0 | 2.6 | 0.00 | 0.00 | 0.00 | 47 | 988.2 | |
| 20260503235518 | 46 | 315 | 0.9 | 2.6 | 0.00 | 0.00 | 0.00 | 46 | 988.1 |
| 20260503234518 | 47 | 0.0 | 0.0 | 0.00 | 0.00 | 0.00 | 46 | 988.0 | |
| 20260503233518 | 47 | 338 | 0.9 | 2.6 | 0.00 | 0.00 | 0.00 | 45 | 987.9 |
| 20260503232519 | 48 | 293 | 0.9 | 2.6 | 0.00 | 0.00 | 0.00 | 45 | 988.0 |
| 20260503231518 | 48 | 0.0 | 0.0 | 0.00 | 0.00 | 0.00 | 46 | 988.0 | |
| 20260503230522 | 48 | 315 | 2.6 | 6.1 | 0.00 | 0.00 | 0.00 | 44 | 988.0 |
| 20260503225527 | 48 | 338 | 4.3 | 9.6 | 0.00 | 0.00 | 0.00 | 45 | 987.8 |
| 20260503224520 | 48 | 315 | 5.2 | 10.4 | 0.00 | 0.00 | 0.00 | 43 | 987.9 |
| 20260503223518 | 49 | 270 | 7.0 | 12.2 | 0.00 | 0.00 | 0.00 | 43 | 987.9 |
| 20260503222520 | 49 | 45 | 4.3 | 8.7 | 0.00 | 0.00 | 0.00 | 44 | 987.9 |
| 20260503221519 | 49 | 315 | 4.3 | 7.0 | 0.00 | 0.00 | 0.00 | 46 | 987.8 |
| 20260503220522 | 48 | 315 | 3.5 | 7.8 | 0.00 | 0.00 | 0.00 | 47 | 987.8 |
| 20260503215518 | 48 | 315 | 7.8 | 15.6 | 0.00 | 0.00 | 0.00 | 45 | 987.7 |
| 20260503214519 | 48 | 315 | 8.7 | 12.2 | 0.00 | 0.00 | 0.00 | 45 | 987.6 |
| 20260503213518 | 47 | 315 | 7.0 | 10.4 | 0.00 | 0.00 | 0.00 | 48 | 987.6 |
| 20260503212522 | 47 | 315 | 3.5 | 6.1 | 0.00 | 0.00 | 0.00 | 48 | 987.6 |
| 20260503211524 | 47 | 293 | 2.6 | 7.0 | 0.00 | 0.00 | 0.00 | 48 | 987.6 |
| 20260503210524 | 47 | 293 | 5.2 | 7.8 | 0.00 | 0.00 | 0.00 | 47 | 987.5 |
| 20260503205518 | 48 | 293 | 12.2 | 15.6 | 0.00 | 0.00 | 0.00 | 46 | 987.6 |
| 20260503204518 | 47 | 315 | 5.2 | 11.3 | 0.00 | 0.00 | 0.00 | 48 | 987.6 |
| 20260503203520 | 47 | 315 | 5.2 | 9.6 | 0.00 | 0.00 | 0.00 | 47 | 987.6 |
| 20260503202522 | 48 | 293 | 5.2 | 9.6 | 0.00 | 0.00 | 0.00 | 45 | 987.5 |
| 20260503201520 | 48 | 338 | 4.3 | 9.6 | 0.00 | 0.00 | 0.00 | 45 | 987.4 |
| 20260503200518 | 48 | 315 | 2.6 | 4.3 | 0.00 | 0.00 | 0.00 | 46 | 987.4 |
| 20260503195520 | 48 | 293 | 9.6 | 15.6 | 0.00 | 0.00 | 0.00 | 47 | 987.5 |
| 20260503194520 | 48 | 293 | 3.5 | 6.1 | 0.00 | 0.00 | 0.00 | 48 | 987.6 |
| 20260503193519 | 47 | 338 | 3.5 | 8.7 | 0.00 | 0.00 | 0.00 | 47 | 987.6 |
| 20260503192522 | 47 | 293 | 9.6 | 13.0 | 0.00 | 0.00 | 0.00 | 46 | 987.6 |
| 20260503191520 | 47 | 315 | 7.0 | 13.9 | 0.00 | 0.00 | 0.00 | 45 | 987.6 |
| 20260503190522 | 47 | 315 | 7.8 | 11.3 | 0.00 | 0.00 | 0.00 | 45 | 987.6 |
| 20260503185623 | 47 | 293 | 6.1 | 12.2 | 0.00 | 0.00 | 0.00 | 47 | 987.6 |
| 20260503184720 | 46 | 293 | 9.6 | 14.8 | 0.00 | 0.00 | 0.00 | 46 | 987.6 |
| 20260503183720 | 47 | 293 | 9.6 | 13.9 | 0.00 | 0.00 | 0.00 | 46 | 987.6 |
| 20260503182719 | 47 | 293 | 7.8 | 20.9 | 0.00 | 0.00 | 0.00 | 46 | 987.5 |
| 20260503181720 | 48 | 23 | 8.7 | 18.2 | 0.00 | 0.00 | 0.00 | 45 | 987.3 |
| 20260503180719 | 49 | 338 | 3.5 | 7.0 | 0.00 | 0.00 | 0.00 | 45 | 987.3 |
| 20260503175719 | 49 | 293 | 4.3 | 9.6 | 0.00 | 0.00 | 0.00 | 44 | 987.2 |
| 20260503174720 | 48 | 338 | 2.6 | 7.0 | 0.00 | 0.00 | 0.00 | 43 | 987.1 |
| 20260503173930 | 47 | 315 | 7.0 | 11.3 | 0.00 | 0.00 | 0.00 | 42 | 987.1 |
| 20260503172721 | 47 | 315 | 7.8 | 12.2 | 0.00 | 0.00 | 0.00 | 46 | 987.2 |
| 20260503171845 | 48 | 315 | 6.1 | 13.0 | 0.00 | 0.00 | 0.00 | 43 | 987.1 |